Home   Weather   Toowoomba   Past weeks
Flag for Australia

Past Weather in Toowoomba, Queensland, Australia — Yesterday and Last 2 Weeks

Now
61 °F

Refreshingly cool.


Feels Like: 61 °F
Forecast: 65 / 39 °F
Wind: 10 mph from Southwest

Location: Oakey Aerodrome

Current Time: Jul 24, 2019 at 6:59:40 pm

Latest Report: Jul 24, 2019 at 6:00 pm


Visibility: N/A

Pressure: 30.18 "Hg (28.12 "Hg at 597m altitude)

Humidity: 25%

Dew Point: 25 °F

Location of ToowoombaLocation

Past Weather in Toowoomba — Graph

°F

Toowoomba Temperature Yesterday

Maximum temperature yesterday: 75 °F (at 4:00 pm)
Minimum temperature yesterday: 40 °F (at 7:00 am)
Average temperature yesterday: 57 °F

High & Low Weather Summary for the Past Weeks

 TemperatureHumidityPressure
High75 °F (Jul 23, 4:00 pm)97% (Jul 21, 3:00 am)30.29 "Hg (Jul 21, 3:00 am)
Low24 °F (Jul 16, 7:00 am)14% (Jul 24, 3:00 pm)30.02 "Hg (Jul 18, 3:00 pm)
Average50 °F57%30.14 "Hg
* Reported Jul 9 4:00 pm — Jul 24 4:00 pm, Toowoomba. Weather by CustomWeather, © 2019

Note: Actual official high and low records may vary slightly from our data, if they occured in-between our weather recording intervals... More about our weather records

Advertising

Toowoomba Weather History for the Previous 24 Hours

Scroll right to see more
 ConditionsComfort  
Time TempWeatherWind HumidityBarometerVisibility
4:00 pm
Wed, Jul 24
72 °FMild.15 mph16%30.17 "HgN/A
3:00 pm74 °FMild.12 mph14%30.16 "HgN/A
1:00 pm72 °FMild.12 mph18%30.18 "HgN/A
12:00 pm69 °FMild.9 mph20%30.20 "HgN/A
10:00 am63 °FMild.5 mph33%30.25 "HgN/A
9:00 am56 °FRefreshingly cool.2 mph43%30.24 "HgN/A
7:00 am35 °FChilly.5 mph83%30.21 "HgN/A
6:00 am32 °FChilly.6 mph82%30.19 "HgN/A
4:00 am35 °FChilly.1 mph78%30.18 "HgN/A
3:00 am36 °FChilly.No wind74%30.18 "HgN/A
1:00 am39 °FChilly.No wind71%30.18 "HgN/A
12:00 am40 °FQuite cool.3 mph65%30.19 "HgN/A
10:00 pm
Tue, Jul 23
44 °FQuite cool.6 mph51%30.18 "HgN/A
9:00 pm46 °FCool.6 mph46%30.17 "HgN/A
7:00 pm58 °FRefreshingly cool.5 mph40%30.15 "HgN/A
6:00 pm64 °FMild.5 mph33%30.13 "HgN/A
Weather by CustomWeather, © 2019

See weather overview